Regional Weather Roundup
Issued by NWS Wakefield, VA

Home | Current Version | Previous Version | Text Only | Print | Product List | Glossary Off
Versions: 1 2 3 4 5 6 7 8 9 10 11 12 13 14 15 16 17 18 19 20 21 22 23 24 25 26 27 28

000
ASUS41 KAKQ 180715
RWRAKQ

REGIONAL WEATHER ROUNDUP
NATIONAL WEATHER SERVICE WAKEFIELD VA
200 AM EST THU JAN 18 2018

Note: "fair" indicates few or no clouds below 12,000 feet with no
significant weather and/or obstructions to visibility. * = Denotes
station may not report precipitation (e.g., rain,snow,etc.),
thunder or fog.

VAZ042-051-052>054-056-180800-
NORTHERN VIRGINIA

CITY           SKY/WX    TMP DP  RH WIND       PRES   REMARKS
WASH NATIONAL  FAIR      19   7  59 N10       30.25F WCI   7
DULLES         FAIR      16   7  67 NW12      30.23F WCI   3
FORT BELVOIR   FAIR      18   5  56 NW10G16   30.24F WCI   7
QUANTICO       NOT AVBL
FREDERICKSBRG* FAIR      19   9  64 N7        30.21F
STAFFORD*      FAIR      17   7  66 N7        30.25F
WARRENTON      FAIR      12   4  70 CALM      30.22F
CULPEPER*      FAIR      16   5  60 CALM      30.23F
MANASSAS*      FAIR      15   7  70 N7        30.24F
LEESBURG*      FAIR      19  10  68 NW9       30.25F
WINCHESTER     FAIR      18   5  57 W13       30.25F WCI   4
FRONT ROYAL*   PTSUNNY   18   5  57 SE5       30.24F
LURAY*         FAIR      18   7  62 SE6       30.24F
$$

VAZ048-049-060>072-079>083-180800-
CENTRAL AND SOUTH CENTRAL VIRGINIA

CITY           SKY/WX    TMP DP  RH WIND       PRES   REMARKS
RICHMOND       FAIR      20   7  57 N10G20    30.20S WCI   9
CHESTERFIELD*  NOT AVBL
PETERSBURG*    MOCLDY    19   7  58 N6        30.21R
HANOVER        FAIR      19   5  54 VRB5      30.20F
TAPPAHANNOCK*  FAIR      21   8  56 N13G20    30.19F WCI   9
QUINTON*       PTSUNNY   21   7  56 NW6       30.19S
CHARLOTTSVILLE FAIR      22   3  44 NW6       30.19F
GORDONSVILLE*  FAIR      14   8  78 MISG      30.20F
ORANGE*        FAIR      12   7  79 CALM      30.21F
LOUISA*        FAIR      16   4  59 NW6       30.23F
BUMPASS*       FAIR      19   4  52 N6        30.19F
FARMVILLE*     FAIR      20  16  81 CALM      30.20F
CREWE*         FAIR      18  11  74 NW7       30.19F
FORT PICKETT*  CLOUDY    19  10  70 NW3       30.19S
CHASE CITY*    PTSUNNY   20  20  98 W7        30.21S
CLARKSVILLE*   CLOUDY    21  16  79 NW8       30.21F
SOUTH HILL*    CLOUDY    20  16  83 CALM      30.26R
LAWRENCEVILLE* CLOUDY    21  11  63 NW7       30.19S
EMPORIA*       CLOUDY    23  12  63 NW12      30.19F WCI  12
$$

VAZ088>098-180800-
SOUTHEAST VIRGINIA

CITY           SKY/WX    TMP DP  RH WIND       PRES   REMARKS
NORFOLK        FLURRIES  26  15  63 N20G30    30.13F WCI  12
VIRGINIA BEACH LGT SNOW  25  18  74 N23G33    30.10F WCI  10
NORFOLK NAVAL  CLOUDY    26  14  60 N21       30.15F WCI  12
WEST POINT*    FAIR      22   8  54 NW7       30.21R
SALUDA*        CLOUDY    23  11  61 N13G18    30.18R WCI  11
NEWPORT NEWS   CLOUDY    24  11  57 N12       30.16F WCI  13
LANGLEY AFB    MOCLDY    25  12  58 N14       30.14R WCI  13
FORT EUSTIS    DRIZZLE   25  10  54 N12G23    30.14S WCI  14
WILLIAMSBURG*  FAIR      23  18  80 N3        30.18S
HR EXEC AP*    FLURRIES  24  15  68 N9G18     30.16S
FRANKLIN*      CLOUDY    22  12  65 NW7       30.19S
US460-WAKEFLD  NOT AVBL
$$

VAZ020-022-025-037-045-180800-
WEST CENTRAL AND SOUTHWEST VIRGINIA

CITY           SKY/WX    TMP DP  RH WIND       PRES   REMARKS
STAUNTON*      FAIR       7   2  82 CALM      30.24F
WAYNESBORO*    FAIR      12   3  66 NW3       30.20F
HOT SPRINGS VA FAIR       4  -1  79 NW20      30.05F WCI -16
LYNCHBURG      FAIR      17   3  54 CALM      30.21F
DANVILLE       CLOUDY    17   6  62 NW10G21   30.26F WCI   5
SOUTH BOSTON*  FAIR      18   9  68 NW10      30.23F WCI   7
MARTINSVILLE   FAIR      11   1  62 N3        30.28F
ROANOKE        FAIR      13   2  61 NW7       30.29F
BLACKSBURG     FLURRIES   9   4  79 SW5       30.25F
DUBLIN*        FAIR      11   3  71 NW9       30.26F
MARION*        FLURRIES   8   2  75 SW10      30.27F WCI  -6
HILLSVILLE*    FAIR       7   1  76 NW16G23   30.17S WCI -12
RICHLANDS*     FLURRIES   6   3  86 W3        30.28S
WISE*          MOCLDY     7   5  92 CALM      30.29F
ABINGDON*      FLURRIES  10   5  79 W6        30.34S
$$

MDZ021>025-VAZ099-100-180800-
SOUTHERN MARYLAND AND THE DELMARVA PENINSULA

CITY           SKY/WX    TMP DP  RH WIND       PRES   REMARKS
PATUXENT RIVER NOT AVBL
BAY BRIDGE APT FAIR      19   9  63 NW12      30.22F WCI   7
LEONARDTOWN    FAIR      19   9  63 NW8G17    30.17F
DOVER          FAIR      19  12  73 NW18G25   30.16F WCI   4
GEORGETOWN     FAIR      22   9  57 N14G21    30.13F WCI   9
EASTON         FAIR      21  10  60 N15       30.19F WCI   8
CAMBRIDGE      CLEAR     21  10  63 NW20G30   30.14F WCI   6
SALISBURY      FAIR      22  10  60 NW18      30.13F WCI   7
OCEAN CITY     NOT AVBL
WALLOPS ISLAND CLOUDY    24  11  57 N18G26    30.12S WCI  10
ACCOMACK*      CLOUDY    25  15  65 NW16G26   30.13S WCI  12
$$

NCZ012>017-030>032-180800-
NORTH CENTRAL AND EASTERN NORTH CAROLINA

CITY           SKY/WX    TMP DP  RH WIND       PRES   REMARKS
ROANOKE RAPIDS PTSUNNY   23  16  74 N10       30.18F WCI  12
RALEIGH        FLURRIES  20  15  81 NW9       30.23F
ELIZABETH CITY FOG       24  24 100 N25G31    30.07F VSB 1   WCI   8
AHOSKIE*       CLOUDY    22  13  67 N7        30.17R
EDENTON*       MIX PCPN  24  22  91 N10       30.12F WCI  14
CURRITUCK*     CLOUDY    24  23  94 N16G24    30.08F WCI  11
KILL DEVIL HLS CLOUDY   N/A N/A N/A N13G23    30.05F
MANTEO         SNOW      27  26  96 N14       30.08R VSB 1/2 WCI  15
CAPE HATTERAS  FLURRIES  30  29  96 N12G25    30.02R WCI  20
TARBORO*       NOT AVBL
GOLDSBORO      CLOUDY    25  16  68 NW9       30.18F
WASHINGTON     LGT SNOW  22  19  88 N9        30.16F
GREENVILLE     FLURRIES  25  18  74 N9        30.19S
NEW BERN       LGT SNOW  23  19  85 N15G22    30.16R FOG     WCI  10
WILMINGTON     CLOUDY    27  23  85 NW17      30.18S WCI  14
$$

VAZ048-180800-
ELSEWHERE

CITY           SKY/WX    TMP DP  RH WIND       PRES   REMARKS
HARRISBURG PA  FAIR      13   6  74 NW12      30.21F WCI  -1
BALTIMORE      MOCLDY    18   8  65 W8        30.22F
ANNAPOLIS      FAIR      21   9  59 NW8       30.21F
ANDREWS AFB    FAIR      17   5  59 NW17G23   30.20F WCI   2
PHILADELPHIA   FAIR      19   7  59 NW10      30.20F WCI   7
HENDERSON NC   MOCLDY    19  12  76 NW10      30.21R WCI   7
GREENSBORO     MOCLDY    11   4  73 NW9       30.24F
ROCKY MOUNT    CLOUDY    23  17  78 NW10      30.20F WCI  12
$$

VAZ100-180800-
MARINE

STATION/POSITION TIME  TEMP    WIND        PRES    WAVE   SWELL
                       AIR SEA DIR/SP/G            HT/PER HT/PER
                 (UTC) (F)     (DEG/KT/KT) (MB)    (FT/S) (FT/S)
BRANDYWINE LGT   0642   23     340/ 25/ 29 1020.7F
CAPE MAY NJ      0642   23 31  340/ 13/ 26 1019.9F
LEWES DE         0642   23 33  340/ 27/ 32 1020.0F
15NM E FENWICK I 0650   27 41  340/ 29/ 33 1018.6F   7/ 5   3/11
OCEAN-CITY-INLET 0642   24 34  360/ 21/ 26 1019.5F
WACHAPREAGUE VA  0642   24 32  310/  7/ 18 1020.0S
THOMAS POINT MD  0700   19 31  320/ 14/ 16   N/A
GOOSES REEF MD   0700   22 33  360/ 23/ 27 1022.5    3/ 3
COVE POINT MD    0642   21     350/ 27/ 32 1022.0F
SOLOMONS ISLAND  0642   21 34  330/ 18/ 23 1020.8F
BISHOPS HEAD MD  0642   22 30  330/ 16/ 24 1021.3F
PINEY POINT MD   0636          360/ 21/ 25   N/A
POTOMAC MD       0700   22 34   80/ 17/ 23 1020.7    2/ 3
CAMBRIDGE MD     0642   21 32              1022.0F
LEWISETTA VA     0636   22 32  360/ 17/ 33 1021.8F
RAPPAHANNOCK LGT 0636          340/ 33/ 39 1020.9R
STINGRAY PT      0700   25 33   10/ 17/ 23 1023.7    3/ 3
YORK RVR RNG VA  0636   25      10/ 21/ 24 1021.8R
YORKTOWN VA      0636   24 34  350/  8/ 13 1021.9R
DOMINION TERM VA 0636   25     120/  3/ 10 1021.3F
KIPTOPEKE VA     0636      34  360/ 18/ 25   N/A
CAPE HENRY VA    0636   26     350/ 31/ 36   N/A
WILLOUBY STN VA  0636          340/ 19/ 21 1020.7F
S CRANEY ISL VA  0636   26     350/ 15/ 20 1020.5F
CAPE HENRY BUOY  0700      40                N/A     7/ 6   2/11
1ST LANDING BUOY 0700   26 35   10/ 27/ 35 1020.7    4/ 4
CAPE CHARLES BUO 0651      37                N/A     6/11   2/11
64NM E OF VA BCH 0650   37 56  350/ 31/ 39 1014.5F  10/ 7   5/11
DUCK PIER NC     0636   27 38  350/ 34/ 40 1015.7F
44100 DUCK FRF   0645      43                N/A    10/ 7   2/11
44056 DUCK FRF   0630      40                N/A    10/ 7   2/11
OREGON INLET NC  0636   28 40  340/ 19/ 30 1017.2R
HATTERAS NC      0636   30 42  340/ 30/ 37 1016.2R
DIAMOND SHLS NC  0650   39 71  320/ 31/ 41 1016.4R  10/ 8   5/10
CAPE LOOKOUT NC  0700          340/ 16/ 18 1019.6S
$$




USA.gov is the U.S. government's official web portal to all federal, state and local government web resources and services.